Location: Nitra
(0.0000°N, 18.0833°E)
Time: 05:35:53
(UTC+01:00)

Hubble Space Telescope - Visible Passes

Search period start: 03 February 2023 00:00
Search period end: 13 February 2023 00:00
Orbit: 529 x 532 km, 28.5° (Epoch: 02 February)

Date Brightness Start Highest point End Pass type
(mag) Time Alt. Az. Time Alt. Az. Time Alt. Az.
03 Feb 0.8 19:30:11 10° SW 19:34:13 64° SSE 19:34:13 64° SSE visible
04 Feb 0.6 19:17:01 10° WSW 19:21:06 88° SE 19:22:02 52° ENE visible
05 Feb 3.0 05:30:50 10° NNW 05:33:29 17° NNE 05:36:08 10° ENE visible
05 Feb 0.9 19:03:55 10° WSW 19:07:58 66° NNW 19:09:53 29° NE visible
06 Feb 2.7 05:17:12 10° NNW 05:20:22 22° NNE 05:23:33 10° E visible
06 Feb 1.4 18:50:53 10° WSW 18:54:49 47° NNW 18:57:44 17° NE visible
07 Feb 2.3 05:04:12 13° NNW 05:07:15 28° NNE 05:10:49 10° E visible
07 Feb 2.0 18:37:56 10° W 18:41:41 34° NNW 18:45:24 10° NE visible
08 Feb 1.7 04:52:02 22° NNW 04:54:06 38° NNE 04:57:55 10° E visible
08 Feb 2.5 18:25:06 10° W 18:28:32 26° NNW 18:31:58 10° NNE visible
09 Feb 1.2 04:39:53 40° NNW 04:40:57 53° NNE 04:44:56 10° ESE visible
10 Feb 0.7 04:27:44 74° NNE 04:27:46 74° NNE 04:31:51 10° ESE visible
11 Feb 1.5 04:15:34 50° SE 04:15:34 50° SE 04:18:41 10° ESE visible
12 Feb 2.6 04:03:22 28° SE 04:03:22 28° SE 04:05:26 10° SE visible
